Weather History for Traverse City, MI

Change the Weather History Date:

Friday, August 16, 2013

  Actual Average Record
Temperature  
Mean Temperature 67 °F 68 °F  
Max Temperature 81 °F 78 °F 96 °F (1937)
Min Temperature 52 °F 57 °F 38 °F (1979)
Degree Days  
Heating Degree Days 0 1  
Month to date heating degree days 22 16  
Since 1 June heating degree days 152 156  
Since 1 July heating degree days 50 44  
Cooling Degree Days 2 4  
Month to date cooling degree days 23 70  
Year to date cooling degree days 358 323  
Since 1 June cooling degree days 316 303  
Growing Degree Days 17 (Base 50)    
Moisture  
Dew Point 53 °F    
Average Humidity 63    
Maximum Humidity 93    
Minimum Humidity 33    
Precipitation  
Precipitation 0.00 in 0.10 in 1.72 in (1987)
Month to date precipitation 0.56 1.75  
Year to date precipitation 17.15 19.48  
Sea Level Pressure  
Sea Level Pressure 30.15 in    
Wind  
Wind Speed 3 mph (ENE)    
Max Wind Speed 12 mph    
Max Gust Speed 21 mph    
Visibility 10 miles    
Events      
T = Trace of Precipitation, MM = Missing Value Source: NWS Daily Summary

Daily Weather History Graph

Daily Weather History Graph

Search for Another Location

Airport:

Trip Planner

Search our weather history database for the weather conditions in past years. The results will help you decide how hot, cold, wet, or windy it might be!

Date:

Astronomy

Aug. 16, 2013 Rise Set
Actual Time 6:46 AM EDT 8:46 PM EDT
Civil Twilight 6:14 AM EDT 9:17 PM EDT
Nautical Twilight 5:35 AM EDT 9:56 PM EDT
Astronomical Twilight 4:52 AM EDT 10:38 PM EDT
Moon 5:09 PM EDT (8/16) 1:43 AM EDT (8/16)
Length of Visible Light 15h 03m
Length of Day
14h 00m
Waxing Gibbous, 74% of the Moon is Illuminated
Aug 16
Waxing Gibbous
Aug 20
Full
Aug 28
Last Quarter
Sep 5
New
Sep 12
First Quarter

Hourly Weather History & Observations

Time (EDT) Temp. Dew Point Humidity Pressure Visibility Wind Dir Wind Speed Gust Speed Precip Events Conditions
1:53 AM 55.0 °F 48.9 °F 80% 30.11 in 10.0 mi Calm Calm - N/A   Clear
2:53 AM 54.0 °F 50.0 °F 86% 30.11 in 10.0 mi Calm Calm - N/A   Clear
3:53 AM 54.0 °F 51.1 °F 90% 30.11 in 10.0 mi Calm Calm - N/A   Clear
4:53 AM 54.0 °F 51.1 °F 90% 30.12 in 10.0 mi SSE 3.5 mph - N/A   Clear
5:53 AM 53.1 °F 50.0 °F 89% 30.13 in 10.0 mi South 4.6 mph - N/A   Clear
6:53 AM 53.1 °F 50.0 °F 89% 30.14 in 10.0 mi Calm Calm - N/A   Clear
7:53 AM 54.0 °F 50.0 °F 86% 30.15 in 10.0 mi Calm Calm - N/A   Clear
8:53 AM 61.0 °F 53.1 °F 75% 30.16 in 10.0 mi Calm Calm - N/A   Clear
9:53 AM 68.0 °F 57.0 °F 68% 30.16 in 10.0 mi Calm Calm - N/A   Clear
10:53 AM 73.9 °F 52.0 °F 46% 30.17 in 10.0 mi Calm Calm - N/A   Clear
11:53 AM 77.0 °F 48.9 °F 37% 30.16 in 10.0 mi Calm Calm - N/A   Partly Cloudy
12:53 PM 79.0 °F 48.9 °F 35% 30.16 in 10.0 mi Variable 4.6 mph - N/A   Scattered Clouds
1:53 PM 80.1 °F 50.0 °F 35% 30.15 in 10.0 mi Variable 5.8 mph - N/A   Scattered Clouds
2:53 PM 80.1 °F 48.9 °F 34% 30.15 in 10.0 mi ENE 3.5 mph - N/A   Scattered Clouds
3:53 PM 81.0 °F 51.1 °F 35% 30.14 in 10.0 mi NNE 8.1 mph - N/A   Scattered Clouds
4:53 PM 79.0 °F 52.0 °F 39% 30.15 in 10.0 mi NE 8.1 mph - N/A   Scattered Clouds
5:53 PM 77.0 °F 54.0 °F 45% 30.15 in 10.0 mi NE 6.9 mph - N/A   Partly Cloudy
6:53 PM 75.9 °F 55.0 °F 48% 30.16 in 10.0 mi NE 6.9 mph - N/A   Partly Cloudy
7:53 PM 73.0 °F 60.1 °F 64% 30.16 in 10.0 mi NE 6.9 mph - N/A   Partly Cloudy
8:53 PM 70.0 °F 64.0 °F 81% 30.17 in 10.0 mi NE 3.5 mph - N/A   Scattered Clouds
9:53 PM 66.0 °F 62.1 °F 87% 30.19 in 10.0 mi Calm Calm - N/A   Partly Cloudy
10:53 PM 63.0 °F 60.1 °F 90% 30.19 in 10.0 mi Calm Calm - N/A   Clear
11:53 PM 60.1 °F 57.0 °F 90% 30.19 in 10.0 mi Calm Calm - N/A   Clear